Regional Weather Roundup
Issued by NWS Midland/Odessa, TX

Skip options and go directly to product.
Home | Oldest Version | Next Version | Current Version | All | Text Only | Save Text | Print | Product List | Glossary On

Skip product version selection by date and time.   
638
ASUS44 KMAF 210902
RWRMAF
MIDLAND AREA WEATHER ROUNDUP
NATIONAL WEATHER SERVICE MIDLAND TX
400 AM CDT THU AUG 21 2014

...IN SOUTHWEST TEXAS AND SOUTHEAST NEW MEXICO...

CITY           SKY/WX    TMP DP  RH WIND       PRES   REMARKS
ALPINE         MOCLDY    71  60  68 SW10      30.13S
ANDREWS        FAIR      75  63  65 S7        29.99S
ARTESIA        CLEAR     72  59  64 CALM      29.96S
BIG SPRING     PTCLDY    79  64  60 SE20      29.99F
CARLSBAD       CLEAR     74  60  61 W6        29.94R
DRYDEN           N/A     80  63  55 E5        29.96R
FORT STOCKTON  PTCLDY    74  63  68 S12       29.98S
GUAD PASS      PTCLDY    68  55  63 SW15      30.13S
HOBBS          CLEAR     73  61  64 S12G18    29.99S
MARFA          PTCLDY    66  63  88 CALM      30.13F
MIDLAND AIRPK  NOT AVBL
MIDLAND INTL   MOCLDY    76  65  68 S10       29.97S
ODESSA         MOCLDY    77  64  64 S10       29.98S
PECOS          PTCLDY    76  64  66 E6        29.92S
PRESIDIO       FAIR      77  65  67 CALM      30.00R
SEMINOLE       MOCLDY    74  62  66 S8        30.00S
SNYDER         MOCLDY    78  62  58 S12       29.98S
WINK           PTCLDY    78  64  61 SE10      29.93S
$$
...OTHER STATIONS IN TEXAS...

CITY           SKY/WX    TMP DP  RH WIND       PRES   REMARKS
ABILENE        PTCLDY    80  68  66 S14       29.97R
AMARILLO       PTCLDY    73  63  70 S16       29.99R
AUSTIN         PTCLDY    80  75  84 S9        29.99S
BROWNSVILLE    CLEAR     81  76  84 S12       29.98F
CORPUS CHRISTI PTCLDY    82  76  81 S18       29.97F
DALLAS FTW     CLEAR     81  72  74 S13       29.95S
DEL RIO        MOCLDY    82  70  66 E8        29.92S
EL PASO        PTCLDY    81  45  28 N7        30.00S
HOUSTON INT    PTCLDY    81  77  88 S5        30.01S
LUBBOCK        CLOUDY    76  62  62 S16       29.99S
SAN ANGELO     PTCLDY    79  70  74 S13       29.97R
SAN ANTONIO    CLOUDY    83  74  74 SE15      29.99F
WACO           CLEAR     79  73  82 S15       29.98S
WICHITA FALLS  NOT AVBL
$$
...OTHER LOCATIONS IN NEW MEXICO...

CITY           SKY/WX    TMP DP  RH WIND       PRES   REMARKS
ALAMAGORDO     PTCLDY    66  46  48 SE5       30.02S
ALBUQUERQUE    PTCLDY    65  47  52 SE7       30.09S
CANNON AFB     NOT AVBL
CLOVIS           N/A     68  61  77 S8        30.03S
HOLLOMAN AFB   PTCLDY    73  46  37 SE12      29.99F
ROSWELL        CLEAR     71  61  70 S8        29.95S
RUIDOSO        CLEAR     59  46  63 W5        30.20S
SANTA FE       CLEAR     55  41  59 N7        30.14F
TRUTH OR CONSE CLEAR     71  46  40 W5        30.05S
TUCUMCARI      CLEAR     74  59  59 S12       29.94F
$$

USA.gov is the U.S. government's official web portal to all federal, state and local government web resources and services.